Location: Contre
(49.7477°N, 2.0963°E)
Time: 11:36:55
(UTC+00:00)

Meteor 2-12 Rocket - Pass Details

Date: 16 November 2025
Orbit: 935 x 957 km, 82.5° (Epoch: 05 December)

Event Time Altitude Azimuth Distance (km) Brightness Sun altitude
Rises 18:12:08 0° 346° (NNW) 3,629 7.6 -20.0°
Reaches altitude 10° 18:14:42 10° 341° (NNW) 2,676 6.9 -20.4°
Maximum altitude 18:20:33 50° 268° (W) 1,187 5.3 -21.4°
Drops below altitude 10° 18:26:21 10° 195° (SSW) 2,645 7.0 -22.3°
Sets 18:28:52 0° 190° (S) 3,582 7.6 -22.7°
